Regional Weather Roundup
Issued by NWS

Home | Current Version | Previous Version | Text Only | Print | Product List | Glossary Off
Versions: 1 2 3 4 5 6 7 8 9 10 11 12 13 14 15 16 17 18 19 20 21 22 23 24 25 26 27 28 29 30 31 32 33 34 35 36 37 38 39 40 41 42 43 44 45 46 47 48 49 50

000
ASUS43 KDTX 230810
RWRMI
MICHIGAN HOURLY REGIONAL WEATHER ROUNDUP
NATIONAL WEATHER SERVICE DETROIT/PONTIAC MI
300 AM EST THU FEB 23 2017

NOTE: "FAIR" INDICATES FEW OR NO CLOUDS BELOW 12,000 FEET WITH NO
SIGNIFICANT WEATHER AND/OR OBSTRUCTION TO VISIBILITY.

MIZ047>049-052>055-059>063-066>070-074>076-081>083-230900-
SOUTHEAST LOWER MICHIGAN

CITY           SKY/WX    TMP DP  RH WIND       PRES   REMARKS
ADRIAN         MOCLDY    55  54  96 SW14      29.67F
ALMA           CLOUDY    58  53  84 SW15      29.57S
ANN ARBOR      CLOUDY    54  54 100 S12       29.65F FOG
BAD AXE        CLOUDY    54  51  89 S13       29.57F
CARO           MOCLDY    58  54  84 SW15G22   29.56F
DETROIT CITY   MOCLDY    55  54  96 SW15      29.65F FOG
DETROIT        CLOUDY    54  53  97 S10       29.66F FOG
FLINT          MOCLDY    57  52  83 SW10      29.60F
GROSSE ILE     FOG       45  44  99 S10       29.66F VSB 1/4
HILLSDALE      PTCLDY    54  52  94 S13       29.65F FOG
HOWELL         CLOUDY    56  51  85 SW7       29.62S

CITY           SKY/WX    TMP DP  RH WIND       PRES   REMARKS
JACKSON        PTCLDY    57  52  83 SW14      29.63F
LAMBERTVILLE   MOCLDY    59  55  85 S10G20    29.68F
LANSING        PTCLDY    58  52  80 SW16G23   29.60F
LAPEER         MOCLDY    59  53  80 SW17G26   29.60F
MASON          CLOUDY    59  54  84 SW9       29.61F
MONROE         PTCLDY    58  56  91 SW14      29.66F
MT. CLEMENS    CLOUDY    55  55 100 S12       29.63F
PONTIAC        MOCLDY    56  52  86 S12G21    29.62F
PORT HOPE        N/A     54  50  86 VRB6      29.54F
PORT HURON     CLOUDY    54  54 100 S12       29.64F FOG
TRI CITIES     CLOUDY    59  54  83 SW16G24   29.56F
MIDLAND        CLOUDY    56  51  80 SW9       29.54F
TROY           CLOUDY    56  53  90 S7        29.66F FOG
SAGINAW HB     CLOUDY    59  52  77 SW13      29.56F
$$
MIZ043>046-050>051-056>058-064>065-071>073-077>080-230900-
SOUTHWEST LOWER MICHIGAN

CITY           SKY/WX    TMP DP  RH WIND       PRES   REMARKS
BATTLE CREEK   MOCLDY    56  54  93 SW14      29.63S
BENTON HARBOR  PTCLDY    57  52  83 SW18G29   29.65R
BIG RAPIDS     CLOUDY    55  50  83 W18G24    29.54S
COLDWATER      CLEAR     58  54  86 SW14G21   29.64F
FREMONT        FAIR      50  49  95 SW9       29.57R
HOLLAND        CLEAR     54  49  83 SW20      29.61R
GRAND RAPIDS   CLEAR     58  51  78 SW23      29.58S
IONIA          CLOUDY    57  52  84 SW17G23   29.58S
KALAMAZOO      CLOUDY    57  52  83 SW10      29.64S
LUDINGTON      MOCLDY    46  45  98 W13       29.57R FOG
MARSHALL       PTCLDY    58  54  86 SW15G23   29.62F
MOUNT PLEASANT PTCLDY    58  52  82 SW12G17   29.54F
MUSKEGON       CLEAR     51  48  89 SW15G23   29.60R
SOUTH HAVEN    PTCLDY    57  54  88 SW16G25   29.64R
$$
MIZ016>042-230900-
NORTHERN LOWER MICHIGAN

CITY           SKY/WX    TMP DP  RH WIND       PRES   REMARKS
ALPENA         CLOUDY    46  44  93 NE3       29.50F
BEAVER ISLAND  FOG       38  38 100 N5        29.54R VSB 1/2 WCI  34
BELLAIRE       CLOUDY    45  44  98 CALM      29.50S FOG
CADILLAC       CLOUDY    54  52  92 SW12G17   29.51R
CHARLEVOIX     CLOUDY    40  40 100 SW5       29.53S FOG
FRANKFORT      FOG       41  41  99 W6        29.55R VSB 1/2
GAYLORD        FOG       47  44  90 S6        29.48S VSB 1/4
GRAYLING       CLOUDY    54  52  94 S3        29.50F FOG
HARBOR SPRINGS CLOUDY    41  41 100 CALM      29.49F FOG
HOUGHTON LAKE  CLOUDY    53  50  89 SW10      29.51F
MANISTEE       LGT RAIN  43  43 100 W16       29.56R VSB 3/4
OSCODA         CLOUDY    52  50  93 SW10G16   29.51F FOG
PELLSTON       FOG       40  38  93 NE3       29.50S VSB 1/2
ROGERS CITY    RAIN      43  42  95 CALM      29.50R
TRAVERSE CITY  CLOUDY    45  43  93 CALM      29.51R
$$
MIZ007>008-015-230900-
EASTERN UPPER MICHIGAN

CITY           SKY/WX    TMP DP  RH WIND       PRES   REMARKS
KINROSS        FOG       37  37 100 CALM      29.52R VSB 3/4
MACKINAC ISLAN LGT RAIN  37  37 100 E5        29.50F VSB 1/2 WCI  33
NEWBERRY       CLOUDY    36  34  93 NW8       29.54S WCI  29
S. S. MARIE    FOG       40  39  97 CALM      29.51F VSB 3/4
MUNISING         N/A     35  34  96 NW14      29.60R WCI  26
$$
MIZ004>006-011>014-085-230900-
CENTRAL UPPER MICHIGAN

CITY           SKY/WX    TMP DP  RH WIND       PRES   REMARKS
MANISTIQUE     CLOUDY    35  35  98 NW12G17   29.56R WCI  27
ESCANABA       CLOUDY    37  34  89 N13G20    29.59R WCI  29
MENOMINEE      PTCLDY    39  35  86 N12       29.60R WCI  32
SAWYER-GWINN   LGT SNOW  32  31  96 N15       29.63S VSB 3/4 WCI  22
$$
MIZ001>003-009>011-084-230900-
WESTERN UPPER MICHIGAN

CITY           SKY/WX    TMP DP  RH WIND       PRES   REMARKS
IRON MOUNTAIN  LGT SNOW  33  31  92 N8        29.62S FOG     WCI  26
HOUGHTON       CLOUDY    32  26  78 N14       29.71R WCI  22
COPPER HARBOR    N/A     34  29  82 NE16G26   29.69R WCI  24
IRONWOOD       FLURRIES  32  31  96 VRB5      29.77R WCI  27
$$

ABBREVIATIONS USED IN REMARKS
   TC - TEMPERATURE IN CELSIUS
  WCI - WIND CHILL INDEX
   HX - HEAT INDEX
  VSB - VISIBILITY




USA.gov is the U.S. government's official web portal to all federal, state and local government web resources and services.